QTRB8K LTFJ-LGAV

Flight info

Callsign QTRB8K
Flight time 0h 59m
Altitude 32000
Route IVGUS1J/06L IVGUS UY226 BIG UN604 OGSIL
Aircraft A320/M-SDE3FGHIRWY/LB1

Departure

Time 2026-05-05 17:33
Airport Istanbul Sabiha Gökçen International Airport (LTFJ)

Arrival

Time 2026-05-05 18:32
Airport Athens Eleftherios Venizelos International Airport (LGAV)
Time Latitude Longitude Altitude Speed Heading
2026-05-05 16:45 40.90571 29.31550 310 ft 0 kts 333°
2026-05-05 17:20 40.90569 29.31552 310 ft 3 kts 333°
2026-05-05 17:20 40.90563 29.31556 310 ft 2 kts 333°
2026-05-05 17:20 40.90547 29.31567 311 ft 3 kts 333°
2026-05-05 17:20 40.90531 29.31578 307 ft 3 kts 333°
2026-05-05 17:21 40.90515 29.31588 309 ft 3 kts 318°
2026-05-05 17:21 40.90504 29.31607 309 ft 3 kts 281°
2026-05-05 17:21 40.90503 29.31613 308 ft 0 kts 275°
2026-05-05 17:23 40.90502 29.31605 310 ft 0 kts 259°
2026-05-05 17:25 40.90500 29.31593 309 ft 2 kts 259°
2026-05-05 17:25 40.90493 29.31566 308 ft 5 kts 246°
2026-05-05 17:26 40.90465 29.31480 309 ft 12 kts 247°
2026-05-05 17:26 40.90438 29.31430 310 ft 3 kts 178°
2026-05-05 17:26 40.90380 29.31447 308 ft 12 kts 145°
2026-05-05 17:26 40.90321 29.31503 306 ft 11 kts 154°
2026-05-05 17:27 40.90256 29.31440 306 ft 15 kts 242°
2026-05-05 17:27 40.90202 29.31296 305 ft 20 kts 246°
2026-05-05 17:27 40.90138 29.31119 303 ft 23 kts 245°
2026-05-05 17:27 40.90060 29.30922 301 ft 25 kts 227°
2026-05-05 17:28 40.90008 29.30807 304 ft 12 kts 260°
2026-05-05 17:28 40.89979 29.30693 306 ft 13 kts 240°
2026-05-05 17:28 40.89936 29.30574 307 ft 15 kts 245°
2026-05-05 17:28 40.89890 29.30442 309 ft 17 kts 245°
2026-05-05 17:29 40.89832 29.30290 307 ft 21 kts 241°
2026-05-05 17:29 40.89760 29.30107 305 ft 24 kts 242°
2026-05-05 17:29 40.89681 29.29892 303 ft 28 kts 244°
2026-05-05 17:29 40.89597 29.29654 300 ft 28 kts 245°
2026-05-05 17:30 40.89514 29.29431 303 ft 20 kts 240°
2026-05-05 17:30 40.89475 29.29331 301 ft 5 kts 246°
2026-05-05 17:30 40.89467 29.29307 301 ft 2 kts 246°
2026-05-05 17:30 40.89466 29.29304 301 ft 0 kts 246°
2026-05-05 17:31 40.89464 29.29298 301 ft 2 kts 245°
2026-05-05 17:31 40.89448 29.29268 301 ft 5 kts 226°
2026-05-05 17:31 40.89410 29.29255 302 ft 6 kts 179°
2026-05-05 17:31 40.89369 29.29272 303 ft 6 kts 154°
2026-05-05 17:32 40.89317 29.29305 304 ft 12 kts 154°
2026-05-05 17:32 40.89291 29.29392 305 ft 11 kts 78°
2026-05-05 17:32 40.89310 29.29441 304 ft 1 kts 65°
2026-05-05 17:32 40.89313 29.29447 304 ft 0 kts 65°
2026-05-05 17:33 40.89342 29.29532 305 ft 41 kts 66°
2026-05-05 17:33 40.89574 29.30168 302 ft 109 kts 66°
2026-05-05 17:33 40.89986 29.31277 385 ft 144 kts 62°
2026-05-05 17:33 40.90283 29.32530 930 ft 153 kts 82°
2026-05-05 17:34 40.90618 29.33969 1630 ft 171 kts 62°
2026-05-05 17:34 40.91191 29.35414 2144 ft 184 kts 58°
2026-05-05 17:34 40.91847 29.36966 2564 ft 203 kts 57°
2026-05-05 17:34 40.92561 29.38686 3074 ft 222 kts 57°
2026-05-05 17:35 40.93268 29.40603 3695 ft 243 kts 70°
2026-05-05 17:35 40.93222 29.42888 4485 ft 263 kts 107°
2026-05-05 17:35 40.92117 29.44882 5252 ft 281 kts 142°
2026-05-05 17:35 40.90378 29.46130 6133 ft 289 kts 158°
2026-05-05 17:36 40.88492 29.47010 7019 ft 294 kts 161°
2026-05-05 17:36 40.86534 29.47845 7929 ft 297 kts 162°
2026-05-05 17:36 40.84486 29.48186 8835 ft 300 kts 187°
2026-05-05 17:36 40.82493 29.47427 9713 ft 301 kts 210°
2026-05-05 17:37 40.80817 29.45766 10406 ft 307 kts 224°
2026-05-05 17:37 40.79725 29.44467 10716 ft 319 kts 225°
2026-05-05 17:37 40.77483 29.41756 11246 ft 341 kts 225°
2026-05-05 17:37 40.75701 29.39582 11614 ft 358 kts 225°
2026-05-05 17:38 40.73869 29.37283 12147 ft 366 kts 230°
2026-05-05 17:38 40.72388 29.34554 12842 ft 366 kts 245°
2026-05-05 17:38 40.71461 29.31446 13553 ft 365 kts 260°
2026-05-05 17:38 40.71135 29.28133 14187 ft 364 kts 274°
2026-05-05 17:39 40.71418 29.24837 14818 ft 362 kts 288°
2026-05-05 17:39 40.72163 29.21660 15442 ft 363 kts 291°
2026-05-05 17:39 40.72943 29.18472 16056 ft 367 kts 291°
2026-05-05 17:39 40.73723 29.15251 16677 ft 371 kts 291°
2026-05-05 17:40 40.74507 29.11995 17296 ft 374 kts 290°
2026-05-05 17:40 40.75297 29.08708 17933 ft 378 kts 290°
2026-05-05 17:40 40.76094 29.05389 18546 ft 382 kts 290°
2026-05-05 17:40 40.76855 29.02001 19111 ft 387 kts 285°
2026-05-05 17:41 40.77223 28.98460 19682 ft 394 kts 277°
2026-05-05 17:41 40.77424 28.94835 20251 ft 398 kts 277°
2026-05-05 17:41 40.77365 28.91156 20817 ft 407 kts 263°
2026-05-05 17:41 40.76488 28.87576 21349 ft 416 kts 248°
2026-05-05 17:42 40.75271 28.84089 21832 ft 421 kts 248°
2026-05-05 17:42 40.74046 28.80616 22326 ft 425 kts 248°
2026-05-05 17:42 40.72785 28.77069 22811 ft 429 kts 247°
2026-05-05 17:42 40.71510 28.73492 23290 ft 433 kts 247°
2026-05-05 17:43 40.70221 28.69874 23738 ft 437 kts 248°
2026-05-05 17:43 40.68930 28.66232 24154 ft 440 kts 248°
2026-05-05 17:43 40.67632 28.62560 24571 ft 443 kts 248°
2026-05-05 17:43 40.66332 28.58876 24992 ft 445 kts 247°
2026-05-05 17:44 40.65026 28.55176 25397 ft 447 kts 247°
2026-05-05 17:44 40.63712 28.51466 25811 ft 448 kts 247°
2026-05-05 17:44 40.62384 28.47736 26204 ft 450 kts 247°
2026-05-05 17:44 40.61049 28.44001 26603 ft 452 kts 247°
2026-05-05 17:45 40.59706 28.40246 26990 ft 454 kts 247°
2026-05-05 17:45 40.58356 28.36474 27387 ft 456 kts 246°
2026-05-05 17:45 40.57001 28.32689 27768 ft 458 kts 246°
2026-05-05 17:45 40.55642 28.28888 28147 ft 460 kts 246°
2026-05-05 17:46 40.54272 28.25072 28516 ft 463 kts 246°
2026-05-05 17:46 40.52892 28.21235 28892 ft 464 kts 246°
2026-05-05 17:46 40.51507 28.17386 29237 ft 467 kts 246°
2026-05-05 17:46 40.50113 28.13519 29592 ft 469 kts 246°
2026-05-05 17:47 40.48715 28.09644 29936 ft 471 kts 246°
2026-05-05 17:47 40.47330 28.05805 30257 ft 472 kts 246°
2026-05-05 17:47 40.45919 28.01903 30576 ft 472 kts 247°
2026-05-05 17:47 40.44511 27.98011 30939 ft 471 kts 247°
2026-05-05 17:48 40.43106 27.94131 31306 ft 470 kts 247°
2026-05-05 17:48 40.41703 27.90265 31670 ft 468 kts 248°
2026-05-05 17:48 40.40304 27.86417 31935 ft 467 kts 248°
2026-05-05 17:48 40.38907 27.82582 32059 ft 463 kts 248°
2026-05-05 17:49 40.37523 27.78792 32088 ft 459 kts 248°
2026-05-05 17:49 40.34732 27.71273 32082 ft 460 kts 243°
2026-05-05 17:49 40.32809 27.67908 32081 ft 466 kts 228°
2026-05-05 17:50 40.30439 27.64985 32081 ft 468 kts 226°
2026-05-05 17:50 40.25650 27.59221 32082 ft 468 kts 226°
2026-05-05 17:51 40.20872 27.53502 32085 ft 468 kts 226°
2026-05-05 17:51 40.16078 27.47748 32094 ft 467 kts 226°
2026-05-05 17:52 40.11291 27.41990 32091 ft 467 kts 226°
2026-05-05 17:52 40.06505 27.36257 32091 ft 467 kts 226°
2026-05-05 17:53 40.01709 27.30534 32094 ft 466 kts 226°
2026-05-05 17:53 39.96955 27.24867 32092 ft 465 kts 226°
2026-05-05 17:54 39.92175 27.19190 32090 ft 464 kts 226°
2026-05-05 17:54 39.87400 27.13522 32089 ft 464 kts 226°
2026-05-05 17:55 39.82600 27.07815 32080 ft 464 kts 227°
2026-05-05 17:55 39.77854 27.02197 32073 ft 464 kts 226°
2026-05-05 17:56 39.73067 26.96561 32066 ft 463 kts 227°
2026-05-05 17:56 39.68283 26.90928 32057 ft 465 kts 227°
2026-05-05 17:57 39.64294 26.86236 32059 ft 464 kts 227°
2026-05-05 17:57 39.59503 26.80608 32069 ft 465 kts 227°
2026-05-05 17:58 39.53932 26.74072 32068 ft 465 kts 227°
2026-05-05 17:58 39.49910 26.69366 32067 ft 465 kts 227°
2026-05-05 17:59 39.45107 26.63765 32074 ft 465 kts 227°
2026-05-05 17:59 39.40303 26.58169 32071 ft 465 kts 227°
2026-05-05 18:00 39.35488 26.52580 32067 ft 465 kts 227°
2026-05-05 18:00 39.30177 26.47691 32063 ft 475 kts 214°
2026-05-05 18:01 39.24522 26.43329 32059 ft 469 kts 223°
2026-05-05 18:01 39.20017 26.37541 32059 ft 455 kts 238°
2026-05-05 18:02 39.16072 26.31147 32066 ft 455 kts 238°
2026-05-05 18:02 39.12089 26.24800 32072 ft 455 kts 238°
2026-05-05 18:03 39.08105 26.18463 32065 ft 455 kts 238°
2026-05-05 18:03 39.05996 26.15370 32020 ft 467 kts 228°
2026-05-05 18:03 39.03288 26.12957 32022 ft 482 kts 211°
2026-05-05 18:03 39.00089 26.11526 32025 ft 493 kts 197°
2026-05-05 18:04 38.96720 26.10622 32020 ft 495 kts 196°
2026-05-05 18:04 38.89951 26.08923 32068 ft 495 kts 195°
2026-05-05 18:05 38.83188 26.07245 32077 ft 495 kts 195°
2026-05-05 18:05 38.76425 26.05574 32076 ft 494 kts 195°
2026-05-05 18:05 38.73051 26.04744 31904 ft 493 kts 195°
2026-05-05 18:06 38.69680 26.03919 31205 ft 493 kts 195°
2026-05-05 18:06 38.67454 26.03376 30625 ft 493 kts 195°
2026-05-05 18:06 38.62931 26.02275 29393 ft 494 kts 195°
2026-05-05 18:06 38.59573 26.01454 28717 ft 488 kts 195°
2026-05-05 18:07 38.56282 26.00532 28056 ft 478 kts 203°
2026-05-05 18:07 38.53342 25.98872 27422 ft 461 kts 217°
2026-05-05 18:07 38.50853 25.96438 26753 ft 444 kts 231°
2026-05-05 18:07 38.48946 25.93438 26099 ft 428 kts 245°
2026-05-05 18:08 38.47648 25.90105 25444 ft 414 kts 257°
2026-05-05 18:08 38.46719 25.86640 24786 ft 410 kts 258°
2026-05-05 18:08 38.45803 25.83206 24148 ft 408 kts 257°
2026-05-05 18:08 38.44889 25.79792 23527 ft 406 kts 257°
2026-05-05 18:09 38.43978 25.76400 22839 ft 403 kts 257°
2026-05-05 18:09 38.43070 25.73025 22205 ft 400 kts 257°
2026-05-05 18:09 38.42171 25.69683 21621 ft 397 kts 257°
2026-05-05 18:09 38.41279 25.66369 21063 ft 394 kts 256°
2026-05-05 18:10 38.40394 25.63077 20528 ft 391 kts 256°
2026-05-05 18:10 38.39514 25.59804 20004 ft 388 kts 256°
2026-05-05 18:10 38.38638 25.56557 19479 ft 386 kts 256°
2026-05-05 18:10 38.37767 25.53340 18953 ft 383 kts 255°
2026-05-05 18:11 38.36899 25.50141 18411 ft 380 kts 255°
2026-05-05 18:11 38.36037 25.46964 18094 ft 380 kts 255°
2026-05-05 18:11 38.35170 25.43776 18054 ft 381 kts 255°
2026-05-05 18:11 38.34314 25.40624 18066 ft 381 kts 255°
2026-05-05 18:12 38.33448 25.37426 18067 ft 381 kts 255°
2026-05-05 18:12 38.32582 25.34236 18065 ft 381 kts 255°
2026-05-05 18:12 38.31712 25.31042 18066 ft 382 kts 255°
2026-05-05 18:12 38.30840 25.27852 18067 ft 382 kts 255°
2026-05-05 18:13 38.29959 25.24660 18065 ft 383 kts 253°
2026-05-05 18:13 38.28666 25.21676 18067 ft 390 kts 237°
2026-05-05 18:13 38.26998 25.18940 18064 ft 391 kts 236°
2026-05-05 18:13 38.25304 25.16222 18066 ft 392 kts 235°
2026-05-05 18:14 38.23609 25.13508 18063 ft 392 kts 235°
2026-05-05 18:14 38.21915 25.10795 18067 ft 392 kts 235°
2026-05-05 18:14 38.20218 25.08080 18064 ft 392 kts 235°
2026-05-05 18:14 38.18520 25.05361 18065 ft 392 kts 235°
2026-05-05 18:15 38.16823 25.02647 18065 ft 392 kts 235°
2026-05-05 18:15 38.15125 24.99932 18066 ft 393 kts 235°
2026-05-05 18:15 38.13425 24.97218 18065 ft 393 kts 235°
2026-05-05 18:15 38.11724 24.94501 18060 ft 393 kts 235°
2026-05-05 18:16 38.10022 24.91783 18069 ft 393 kts 235°
2026-05-05 18:16 38.08318 24.89064 18068 ft 393 kts 235°
2026-05-05 18:16 38.06624 24.86346 18067 ft 392 kts 238°
2026-05-05 18:16 38.05209 24.83423 17926 ft 387 kts 245°
2026-05-05 18:17 38.03914 24.80449 17419 ft 383 kts 245°
2026-05-05 18:17 38.02657 24.77536 16812 ft 380 kts 245°
2026-05-05 18:17 38.01395 24.74600 16199 ft 377 kts 245°
2026-05-05 18:17 38.00147 24.71682 15601 ft 375 kts 245°
2026-05-05 18:18 37.98913 24.68783 15020 ft 372 kts 245°
2026-05-05 18:18 37.97691 24.65900 14448 ft 369 kts 245°
2026-05-05 18:18 37.96484 24.63033 14130 ft 370 kts 245°
2026-05-05 18:18 37.95277 24.60150 14059 ft 370 kts 245°
2026-05-05 18:19 37.94072 24.57264 14075 ft 371 kts 245°
2026-05-05 18:19 37.92866 24.54374 14072 ft 371 kts 245°
2026-05-05 18:19 37.91660 24.51479 14079 ft 371 kts 245°
2026-05-05 18:19 37.90457 24.48593 13920 ft 369 kts 245°
2026-05-05 18:20 37.89267 24.45730 13409 ft 366 kts 245°
2026-05-05 18:20 37.88101 24.42932 13248 ft 351 kts 245°
2026-05-05 18:20 37.86985 24.40266 13108 ft 336 kts 245°
2026-05-05 18:20 37.85899 24.37680 12774 ft 330 kts 245°
2026-05-05 18:21 37.84840 24.35167 12654 ft 318 kts 245°
2026-05-05 18:21 37.83812 24.32737 12409 ft 310 kts 245°
2026-05-05 18:21 37.82809 24.30370 12061 ft 308 kts 245°
2026-05-05 18:21 37.81796 24.27983 11688 ft 306 kts 245°
2026-05-05 18:22 37.80793 24.25616 11325 ft 305 kts 245°
2026-05-05 18:22 37.79795 24.23260 10962 ft 303 kts 245°
2026-05-05 18:22 37.78801 24.20914 10607 ft 302 kts 245°
2026-05-05 18:22 37.77812 24.18581 10258 ft 300 kts 245°
2026-05-05 18:23 37.76829 24.16263 9907 ft 299 kts 245°
2026-05-05 18:23 37.75850 24.13956 9520 ft 297 kts 245°
2026-05-05 18:23 37.74879 24.11663 9157 ft 295 kts 245°
2026-05-05 18:23 37.73914 24.09385 8800 ft 293 kts 245°
2026-05-05 18:24 37.72956 24.07121 8444 ft 291 kts 245°
2026-05-05 18:24 37.72008 24.04876 8104 ft 289 kts 245°
2026-05-05 18:24 37.71066 24.02644 7759 ft 287 kts 245°
2026-05-05 18:24 37.70161 24.00408 7426 ft 283 kts 251°
2026-05-05 18:25 37.69494 23.98085 7090 ft 280 kts 255°
2026-05-05 18:25 37.69090 23.96541 6876 ft 279 kts 255°
2026-05-05 18:25 37.68294 23.93440 6440 ft 276 kts 255°
2026-05-05 18:25 37.67931 23.91098 6087 ft 269 kts 275°
2026-05-05 18:26 37.68416 23.88879 5733 ft 261 kts 303°
2026-05-05 18:26 37.69507 23.87064 5347 ft 260 kts 307°
2026-05-05 18:26 37.70373 23.85042 4959 ft 262 kts 296°
2026-05-05 18:26 37.71111 23.82963 4750 ft 252 kts 295°
2026-05-05 18:27 37.71814 23.81036 4563 ft 232 kts 303°
2026-05-05 18:27 37.72939 23.79678 4094 ft 223 kts 335°
2026-05-05 18:27 37.74429 23.79201 3547 ft 222 kts 353°
2026-05-05 18:27 37.75924 23.79027 3340 ft 207 kts 355°
2026-05-05 18:28 37.78643 23.79230 3023 ft 198 kts 21°
2026-05-05 18:28 37.79795 23.80188 3003 ft 199 kts 36°
2026-05-05 18:28 37.80904 23.81235 2958 ft 199 kts 35°
2026-05-05 18:29 37.81993 23.82259 2783 ft 192 kts 35°
2026-05-05 18:29 37.83037 23.83245 2563 ft 179 kts 35°
2026-05-05 18:29 37.83993 23.84150 2338 ft 166 kts 35°
2026-05-05 18:29 37.84871 23.84982 2142 ft 150 kts 35°
2026-05-05 18:30 37.85679 23.85747 1954 ft 144 kts 35°
2026-05-05 18:30 37.86479 23.86504 1754 ft 143 kts 36°
2026-05-05 18:30 37.87275 23.87259 1561 ft 143 kts 36°
2026-05-05 18:30 37.88068 23.88011 1378 ft 142 kts 36°
2026-05-05 18:31 37.88857 23.88764 1237 ft 142 kts 36°
2026-05-05 18:31 37.89385 23.89274 1088 ft 141 kts 37°
2026-05-05 18:31 37.90415 23.90267 751 ft 140 kts 36°
2026-05-05 18:31 37.91203 23.90989 585 ft 140 kts 35°
2026-05-05 18:32 37.91980 23.91729 399 ft 140 kts 36°
2026-05-05 18:32 37.92748 23.92462 274 ft 133 kts 36°
2026-05-05 18:32 37.93375 23.93050 280 ft 80 kts 37°
2026-05-05 18:32 37.93600 23.93379 285 ft 44 kts 68°
2026-05-05 18:33 37.93643 23.93499 281 ft 0 kts 66°
2026-05-05 18:34 37.93644 23.93500 281 ft 1 kts 66°
2026-05-05 18:34 37.93650 23.93518 284 ft 4 kts 66°
2026-05-05 18:34 37.93664 23.93563 281 ft 8 kts 70°
2026-05-05 18:34 37.93666 23.93650 281 ft 11 kts 115°
2026-05-05 18:35 37.93655 23.93672 285 ft 5 kts 133°
2026-05-05 18:35 37.93586 23.93670 281 ft 14 kts 212°
2026-05-05 18:35 37.93521 23.93610 283 ft 5 kts 217°
2026-05-05 18:35 37.93481 23.93572 280 ft 9 kts 217°
2026-05-05 18:36 37.93434 23.93527 279 ft 0 kts 217°
2026-05-05 18:36 37.93422 23.93519 279 ft 3 kts 193°
2026-05-05 18:36 37.93376 23.93535 281 ft 10 kts 139°
2026-05-05 18:36 37.93320 23.93620 279 ft 16 kts 129°
2026-05-05 18:37 37.93239 23.93758 280 ft 23 kts 128°
2026-05-05 18:37 37.93172 23.93871 280 ft 25 kts 127°
2026-05-05 18:37 37.93048 23.94080 281 ft 13 kts 129°
2026-05-05 18:37 37.93022 23.94122 281 ft 1 kts 129°
2026-05-05 18:38 37.93016 23.94131 281 ft 0 kts 129°
2026-05-05 18:39 37.92999 23.94158 282 ft 6 kts 129°
2026-05-05 18:39 37.92972 23.94200 282 ft 6 kts 129°
2026-05-05 18:40 37.92942 23.94247 282 ft 8 kts 129°
2026-05-05 18:40 37.92905 23.94314 287 ft 11 kts 124°
2026-05-05 18:40 37.92889 23.94349 282 ft 1 kts 112°
2026-05-05 18:40 37.92887 23.94359 282 ft 2 kts 104°
2026-05-05 18:41 37.92887 23.94379 282 ft 4 kts 86°
2026-05-05 18:41 37.92901 23.94409 282 ft 5 kts 54°
2026-05-05 18:41 37.92943 23.94461 283 ft 11 kts 35°
2026-05-05 18:41 37.93021 23.94537 284 ft 17 kts 39°
2026-05-05 18:42 37.93130 23.94644 289 ft 22 kts 32°
2026-05-05 18:42 37.93247 23.94751 287 ft 11 kts 37°
2026-05-05 18:42 37.93315 23.94775 288 ft 10 kts 348°
2026-05-05 18:42 37.93352 23.94752 288 ft 2 kts 340°
2026-05-05 18:43 37.93356 23.94751 288 ft 0 kts 343°
2026-05-05 18:43 37.93361 23.94749 288 ft 3 kts 343°
2026-05-05 18:43 37.93385 23.94740 288 ft 3 kts 343°
2026-05-05 18:43 37.93400 23.94727 288 ft 2 kts 311°
2026-05-05 18:44 37.93415 23.94705 288 ft 4 kts 306°
2026-05-05 18:44 37.93430 23.94671 287 ft 2 kts 298°
2026-05-05 18:44 37.93432 23.94668 288 ft 0 kts 299°